Zurück zum Katalog

ONEWEB-0554

AktivKommunikationPO
NORAD 56056·PAYLOAD·🇬🇧 United Kingdom

Gestartet Mar 26, 2023 von Satish Dhawan Space Centre

Loading…

Nächste Überflüge (nächste 24 Stunden)

TLE

AktuellSource: CelesTrak SupGP

Epoche: Sep 14, 2026, 20:25 UTC

1 56056C 23043L   26257.85119630  .00000551  00000+0  14442-2 0  2573
2 56056  87.9150 210.9785 0002556  85.1547 301.1238 13.16596653    18

Verfolge ONEWEB-0554 in Echtzeit mit AllMySat

Download on the App Store